Location: Vancouver
(49.2827°N, 123.1207°W)
Time: 00:11:36
(UTC-07:00)

ISS - Pass Details

Date: 27 June 2024
Orbit: 410 x 424 km, 51.6° (Epoch: 13 July)

Event Time Altitude Azimuth Distance (km) Brightness Sun altitude
Exits shadow 02:31:48 11° 131° (SE) 1,419 -1.3 -15.5°
Drops below altitude 10° 02:32:38 10° 117° (ESE) 1,485 -1.1 -15.4°
Sets 02:36:01 0° 80° (E) 2,358 0.5 -15.3°
